AirNav   Air Wisconsin pilot careers
 
 324 users online  

9A0 Lumpkin County-Wimpys Airport
Dahlonega, Georgia, USA

GOING TO DAHLONEGA?


FAA INFORMATION EFFECTIVE 16 AUGUST 2018

Location

FAA Identifier: 9A0
Lat/Long: 34-34-59.3000N / 084-01-11.9000W
34-34.988333N / 084-01.198333W
34.5831389 / -84.0199722
(estimated)
Elevation: 1311 ft. / 400 m (estimated)
Variation: 03W (1985)
From city: 3 miles NW of DAHLONEGA, GA
Time zone: UTC -4 (UTC -5 during Standard Time)
Zip code: 30533

Airport Operations

Airport use: Open to the public
Activation date: 08/1956
Control tower: no
ARTCC: ATLANTA CENTER
FSS: MACON FLIGHT SERVICE STATION
NOTAMs facility: MCN (NOTAM-D service available)
Attendance: UNATNDD
Wind indicator: yes
Segmented circle: no
Lights: RDO CTL

Airport Communications

CTAF: 122.9
WX AWOS-3 at DZJ (16 nm N): 119.325 (706-745-9271)

Nearby radio navigation aids

VOR radial/distance  VOR name  Freq  Var
HRSr193/22.2HARRIS VORTAC109.8000E
ODFr259/36.3FOOTHILLS VORTAC113.4000E

 
NDB name  Hdg/Dist  Freq  Var  ID
FLOWERY BRANCH349/23.536503WFKV ..-. -.- ...-
CHERO054/30.541505WDJD -.. .--- -..
COMMERCE328/39.924406WDDA -.. -.. .-

Airport Services

Fuel available: 100LL
24 HOUR SELF SERVE WITH CREDIT CARD.
Parking: tiedowns
Airframe service: NONE
Powerplant service: NONE
Bottled oxygen: NONE
Bulk oxygen: NONE

Runway Information

Runway 15/33

Dimensions: 3090 x 50 ft. / 942 x 15 m
Surface: asphalt, in good condition
Weight bearing capacity: 
Single wheel: 12.0
Runway edge lights: non-standard
NSTD LIRL THE LENGTH OF THE RY. NO THLD LIGHTS. LIRL OTS INDEFLY.
RUNWAY 15  RUNWAY 33
Latitude: 34-35.210333N34-34.767167N
Longitude: 084-01.350167W084-01.046000W
Gradient: 2.0%2.0%
Traffic pattern: leftleft
Displaced threshold: 754 ft.695 ft.
Markings: basic, in good conditionbasic, in good condition
Obstructions: 137 ft. trees, 1236 ft. from runway, 225 ft. left of centerline, 8:1 slope to clear
8:1 APCH SLOPE TO DSPLCD THLD, TREES 728FT OUT & 200FT RIGHT.
22 ft. trees, 310 ft. from runway, 50 ft. right of centerline, 5:1 slope to clear
APCH SLOPE 25:1 TO DSPLCD THLD, TREELINE 2,325 FROM DSPLCD THLD.

Airport Ownership and Management from official FAA records

Ownership: Publicly-owned
Owner: LUMPKIN COUNTY AIRPORT AUTHORITY
99 COURTHOUSE HILL, SUITE H
DAHLONEGA, GA 30533
Phone (706) 429-6949
Manager: H. GENE GAWTHROP
99 COURTHOUSE HILL, SUITE H
DAHLONEGA, GA 30533
Phone (706) 429-6949
AIRPORT ADDRESS: 1682 CAMP WAHSEGA RD

Airport Operational Statistics

Aircraft based on the field: 26
Single engine airplanes: 25
Multi engine airplanes: 1
    
Aircraft operations: avg 107/week *
54% local general aviation
36% transient general aviation
11% military
* for 12-month period ending 31 December 2016

Additional Remarks

ARPT CLSD TO ACFT AT NIGHT, DAYTIME USE ONLY.
DEER & WILDLIFE ON OR INVOF ARPT.

Instrument Procedures

There are no published instrument procedures at 9A0.

Some nearby airports with instrument procedures:

KDZJ - Blairsville Airport (16 nm N)
KGVL - Lee Gilmer Memorial Airport (21 nm SE)
KJZP - Pickens County Airport (23 nm W)
KAJR - Habersham County Airport (23 nm E)
KCNI - Cherokee County Airport (26 nm SW)
 
Loc | Ops | Rwys | IFR | FBO | Links
Com | Nav | Svcs | Stats | Notes


 
Area around 9A0 (Lumpkin County-Wimpys Airport)
 
Road maps at: MapQuest Bing Google
 
Aerial photo
WARNING: Photo may not be current or correct
Aerial photo of 9A0 (Lumpkin County-Wimpys Airport)
Photo by Jerry Morris
Photo taken 17-Sep-2015
looking south.

Do you have a better or more recent aerial photo of Lumpkin County-Wimpys Airport that you would like to share? If so, please send us your photo.

 
Sectional chart

 
Airport distance calculator
Flying to Lumpkin County-Wimpys Airport? Find the distance to fly.

From to 9A0

Sunrise and sunset
Times for 19-Aug-2018
 Local
(UTC-4)
 Zulu
(UTC)
Morning civil twilight06:3410:34
Sunrise07:0111:01
Sunset20:1900:19
Evening civil twilight20:4500:45

Current date and time
Zulu (UTC)  19-Aug-2018 09:23:29
Local (UTC-4)  19-Aug-2018 05:23:29
 
METAR
KDZJ 
16nm N 
190855Z AUTO 00000KT 5SM BR SCT034 SCT044 20/20 A3001 RMK AO2 T02020200
KGVL 
21nm SE 
190853Z AUTO 26006KT 9SM FEW008 BKN012 OVC024 23/23 A2999 RMK AO2 SLP140 T02280228 56005
KJZP 
23nm W 
190855Z AUTO 31005KT 7SM OVC005 22/22 A3002 RMK AO2 6//// T02200215 PNO
KAJR 
23nm E 
190855Z AUTO 25004KT 5SM BR SCT005 OVC010 22/22 A2998 RMK AO2 T02160216
K49A 
25nm W 
190855Z AUTO 26004KT 5SM BR OVC004 23/22 A3002 RMK AO2 T02250216
KCNI 
26nm SW 
190855Z AUTO 26003KT 7SM BKN006 BKN010 OVC014 23/22 A3000 RMK AO2
TAF
KPDK 
44nm S 
190520Z 1906/2006 23006KT P6SM BKN008 TEMPO 1908/1912 OVC005 FM191400 24006KT P6SM VCSH BKN015 FM191700 23007KT P6SM VCSH SCT025 BKN040 PROB30 1918/1924 3SM TSRA BKN030CB FM200100 22004KT P6SM VCSH SCT030 SCT120 BKN250
KRYY 
45nm SW 
190520Z 1906/2006 23005KT P6SM OVC008 TEMPO 1908/1912 OVC005 FM191400 26006KT P6SM VCSH BKN015 FM191700 24007KT P6SM VCSH SCT025 BKN040 PROB30 1918/1924 3SM TSRA BKN030CB FM200100 24004KT P6SM VCSH SCT030 SCT120 BKN250
KMGE 
47nm SW 
190630Z 1906/2011 23006KT 9999 BKN008 QNH2998INS TEMPO 1906/1915 6000 BR BKN010 BECMG 1915/1916 24006KT 9000 -SHRA BKN020 BKN060 QNH2997INS TEMPO 1917/1923 25010G20KT 6000 -TSRA BKN020CB BECMG 1923/1924 22006KT 9999 NSW SCT025 BKN100 QNH2998INS BECMG 2006/2007 20003KT 9999 BKN008 QNH3001INS TX29/1920Z TN23/1911Z
NOTAMs
Click for the latest NOTAMs
NOTAMs are issued by the DoD/FAA and will open in a separate window not controlled by AirNav.

 

 
 

FBO, Fuel Providers, and Aircraft Ground Support

  
 Business Name 
 
 Contact 
 
 Services / Description 
 
Fuel Prices
 
Comments
  
Lumpkin County-Wimpy's Airport 706-864-6894
no information available

If you are affiliated with Lumpkin County-Wimpy's Airport and would like to show here your services, contact info, web link, logo, and more, click here
100LL
SS $4.40 
 Updated 06-Aug-2018
 
   write
SS=Self service
Update Fuel Prices
 

Would you like to see your business listed on this page?

 If your business provides an interesting product or service to pilots, flight crews, aircraft, or users of the Lumpkin County-Wimpys Airport, you should consider listing it here.  To start the listing process, click on the button below
 
Add a business
 

Other Pages about Lumpkin County-Wimpys Airport

Update a link
 
Copyright © AirNav, LLC. All rights reserved. Privacy Policy  Contact